Regional Weather Roundup
Issued by NWS

Home | Current Version | Previous Version | Text Only | Print | Product List | Glossary On
Versions: 1 2 3 4 5 6 7 8 9 10 11 12 13 14 15 16 17 18 19 20 21 22 23 24 25 26 27 28 29 30 31 32 33 34 35 36 37 38 39 40 41 42 43 44 45 46 47 48 49 50
000
ASUS44 KFWD 220810
RWRTX
NORTH TEXAS HOURLY WEATHER ROUNDUP
NATIONAL WEATHER SERVICE FORT WORTH TX
300 AM CDT WED OCT 22 2014

NOTE: "FAIR" INDICATES FEW OR NO CLOUDS BELOW 12,000 FEET WITH NO
SIGNIFICANT WEATHER AND/OR OBSTRUCTIONS TO VISIBILITY.

TXZ118-119-220900-
DALLAS/FORT WORTH METROPLEX

CITY           SKY/WX    TMP DP  RH WIND       PRES   REMARKS
DFW AIRPORT    PTCLDY    64  59  83 CALM      30.06S
DALLAS LOVE    PTCLDY    66  59  78 CALM      30.07R
FTW MEACHAM    CLEAR     65  57  75 CALM      30.06S
DAL-EXECUTIVE  CLEAR     65  59  81 S3        30.06S
FTW-ALLIANCE   PTCLDY    57  55  93 CALM      30.07R
FTW-NAS-JRB    CLEAR     67  56  67 CALM      30.11R
FTW-SPINKS     CLEAR     56  55  94 CALM      30.09R
ARLINGTON      CLEAR     58  55  90 CALM      30.07R
GRAND PRAIRIE  CLEAR     63  59  87 CALM      30.08S
ADDISON        CLEAR     66  62  86 SE3       30.09R
MESQUITE       CLEAR     60  59  95 CALM      30.07S
LANCASTER      CLEAR     57  53  86 CALM      30.07S
$$

TXZ091>094-102>105-117-120-121-131>134-220900-
NORTH CENTRAL TEXAS

CITY           SKY/WX    TMP DP  RH WIND       PRES   REMARKS
SHRMAN/DENISON CLEAR     65  62  89 SE7       30.09R
GAINESVILLE    CLEAR     60  57  89 CALM      30.10R
BOWIE          CLEAR     58  55  90 CALM      30.08R
BRIDGEPORT     CLEAR     54  54 100 CALM      30.10R
DECATUR        CLEAR     63  56  77 SE3       30.08S
DENTON         CLEAR     58  56  93 CALM      30.07R
MCKINNEY       CLEAR     59  56  89 CALM      30.07S
GREENVILLE     CLEAR     57  54  88 CALM      30.08R FOG
ROCKWALL       CLEAR     64  60  88 SE5       30.07R
TERRELL        CLEAR     61  58  90 CALM      30.08R
WAXAHACHIE     CLEAR     59  59  99 CALM      30.09S
CLEBURNE       CLEAR     63  59  88 VRB5      30.09R
GRANBURY       CLEAR     57  54  87 CALM      30.09R
$$

TXZ083>090-098>101-113>116-127>130-139>142-154-155-220900-
WESTERN NORTH TEXAS

CITY           SKY/WX    TMP DP  RH WIND       PRES   REMARKS
WICHITA FALLS  CLEAR     62  53  72 S8        30.05S
WF-KICKAPOO    CLEAR     59  52  78 S6        30.07S
VERNON         CLEAR     61  50  67 S5        30.07R
ABILENE        PTCLDY    64  49  57 S10       30.08R
ABILENE-DYESS  CLOUDY    63  50  61 S8        30.06S
BRECKENRIDGE   CLEAR     62  49  62 SE6       30.07R
GRAHAM         CLEAR     61  54  78 SE5       30.06R
MINERAL WELLS  CLEAR     59  54  83 CALM      30.06S
STEPHENVILLE   MOCLDY    57  51  82 CALM      30.11S
COMANCHE       MOCLDY    58  53  81 SE3       30.08S
BROWNWOOD      MOCLDY    59  54  82 CALM      30.08S
COLEMAN        MOCLDY    64  51  62 CALM      30.08S
BRADY          CLEAR     63  48  59 SE3       30.07S
$$

TXZ143>147-156>162-174-175-220900-
CENTRAL TEXAS

CITY           SKY/WX    TMP DP  RH WIND       PRES   REMARKS
WACO           CLOUDY    62  59  90 NE3       30.07R
WACO-MCGREGOR  CLOUDY    61  52  72 CALM      30.08S
HILLSBORO      CLEAR     65  58  77 E7        30.08R
CORSICANA      CLEAR     65  61  87 SE3       30.08R
MEXIA          CLEAR     62  60  93 CALM      30.06S
HEARNE         PTCLDY    61  59  93 CALM      30.07R
CAMERON        MOCLDY    62  59  90 CALM      30.06R
TEMPLE         CLOUDY    63  54  72 CALM      30.06S
KILLEEN        MOCLDY    66  55  68 S3        30.07R
KILLEEN-SKYLRK CLOUDY    63  52  67 CALM      30.06S
FORT HOOD      CLOUDY    66  58  75 CALM      30.07R
GATESVILLE     MOCLDY    61  55  82 CALM      30.09S
HAMILTON       MOCLDY    62  52  70 CALM      30.09S
LAMPASAS       CLOUDY    61  53  74 NE3       30.06F
$$

TXZ095>097-106>112-122>126-135>138-148>153-164>167-220900-
EAST TEXAS

CITY           SKY/WX    TMP DP  RH WIND       PRES   REMARKS
PARIS          CLEAR     61  52  72 E9        30.09S
SULPHUR SPRNGS CLEAR     61  60  98 CALM      30.09S FOG
MOUNT PLEASANT CLEAR     60  59  95 CALM      30.10R
MINEOLA        CLEAR     57  57 100 CALM      30.09R FOG
TYLER          CLEAR     63  59  87 CALM      30.07R
LONGVIEW       CLEAR     61  59  93 E5        30.07R
MARSHALL       PTCLDY    60  58  92 CALM      30.10R
ATHENS         CLEAR     57  57 100 CALM      30.07R FOG
PALESTINE      CLEAR     61  60  97 CALM      30.08R FOG
JACKSONVILLE   CLEAR     66  62  89 E3        30.09S
HENDERSON      CLEAR     57  57 100 CALM      30.09S FOG
NACOGDOCHES    CLEAR     55  54  94 CALM      30.07S
LUFKIN         CLEAR     63  58  83 CALM      30.06R
$$

SUPPLEMENTAL OBSERVATIONS (CENTRAL)

CITY           SKY/WX    TMP DP  RH WIND       PRES   REMARKS
CADDO GRASSLND   N/A     59  55  88 CALM        N/A
PAT MAYSE LAKE   N/A     61  59  94 NE8         N/A
GREENVILLE       N/A     59  55  88 SW1         N/A
PALESTINE        N/A     57  55  94 CALM        N/A
MCGREGOR         N/A     66  57  72 S5          N/A
$$

SUPPLEMENTAL OBSERVATIONS (WEST)

CITY           SKY/WX    TMP DP  RH WIND       PRES   REMARKS
MILLERS CREEK    N/A     63  48  59 S8          N/A
LBJ GRASSLAND    N/A     63  54  72 E2          N/A
GRANBURY         N/A     55  52  88 W1          N/A
HAMBY            N/A     64  48  55 S8          N/A
COLORADO BEND    N/A     63  52  67 SE3         N/A
$$

SUPPLEMENTAL OBSERVATIONS (EAST)

CITY           SKY/WX    TMP DP  RH WIND       PRES   REMARKS
TEXARKANA        N/A     54  52  94 CALM        N/A
LINDEN           N/A     57  54  88 CALM        N/A
GILMER           N/A     57  55  94 CALM        N/A
HENDERSON        N/A     57  54  88 CALM        N/A
LUFKIN           N/A     59  57  94 MISG        N/A
N SABINE NF      N/A     55  52  88 MISG        N/A
$$

SUPPLEMENTAL OBSERVATIONS ARE A COLLECTION OF AUTOMATED INSTRUMENTS
THAT ARE MAINTAINED BY A VARIETY OF FEDERAL AND STATE AGENCIES.
CERTAIN ELEMENTS...SUCH AS HUMIDITY VALUES AND SUSTAINED WIND
SPEEDS...MAY BE APPROXIMATED.




USA.gov is the U.S. government's official web portal to all federal, state and local government web resources and services.